TimeEDT,TemperatureF,Dew PointF,Humidity,Sea Level PressureIn,VisibilityMPH,Wind Direction,Wind SpeedMPH,Gust SpeedMPH,PrecipitationIn,Events,Conditions,WindDirDegrees,DateUTC
12:53 AM,37.9,23.0,55,30.43,10.0,Calm,Calm,-,N/A,,Clear,0,2013-04-21 04:53:00
1:53 AM,35.1,23.0,61,30.44,10.0,North,3.5,-,N/A,,Clear,360,2013-04-21 05:53:00
2:53 AM,34.0,24.1,67,30.45,10.0,North,3.5,-,N/A,,Clear,360,2013-04-21 06:53:00
3:53 AM,34.0,25.0,70,30.46,10.0,Calm,Calm,-,N/A,,Clear,0,2013-04-21 07:53:00
4:53 AM,30.9,25.0,79,30.49,10.0,Calm,Calm,-,N/A,,Clear,0,2013-04-21 08:53:00
5:53 AM,30.0,25.0,82,30.51,10.0,Calm,Calm,-,N/A,,Clear,0,2013-04-21 09:53:00
6:53 AM,30.0,26.1,85,30.54,10.0,NE,3.5,-,N/A,,Clear,40,2013-04-21 10:53:00
7:53 AM,33.1,27.0,78,30.57,10.0,North,3.5,-,N/A,,Clear,350,2013-04-21 11:53:00
8:53 AM,39.0,28.9,67,30.58,10.0,North,3.5,-,N/A,,Clear,360,2013-04-21 12:53:00
9:53 AM,42.1,23.0,47,30.59,10.0,NNE,8.1,-,N/A,,Clear,20,2013-04-21 13:53:00
10:53 AM,45.0,24.1,44,30.59,10.0,NNE,8.1,-,N/A,,Clear,20,2013-04-21 14:53:00
11:53 AM,45.0,21.0,39,30.58,10.0,Variable,3.5,-,N/A,,Clear,0,2013-04-21 15:53:00
12:53 PM,50.0,24.1,36,30.56,10.0,North,9.2,-,N/A,,Clear,10,2013-04-21 16:53:00
1:53 PM,48.9,18.0,29,30.53,10.0,Calm,Calm,-,N/A,,Clear,0,2013-04-21 17:53:00
2:53 PM,53.1,21.9,30,30.50,10.0,North,5.8,-,N/A,,Clear,360,2013-04-21 18:53:00
3:53 PM,55.0,23.0,29,30.47,10.0,NW,4.6,-,N/A,,Clear,310,2013-04-21 19:53:00
4:53 PM,55.9,23.0,28,30.45,10.0,NNE,6.9,-,N/A,,Clear,20,2013-04-21 20:53:00
5:53 PM,55.9,19.9,25,30.45,10.0,Variable,3.5,-,N/A,,Clear,0,2013-04-21 21:53:00
6:53 PM,55.0,21.9,28,30.44,10.0,North,4.6,-,N/A,,Clear,10,2013-04-21 22:53:00
7:53 PM,53.1,19.9,27,30.45,10.0,ESE,8.1,-,N/A,,Clear,110,2013-04-21 23:53:00
8:53 PM,51.1,17.1,26,30.46,10.0,East,5.8,-,N/A,,Clear,100,2013-04-22 00:53:00
9:53 PM,50.0,18.0,28,30.47,10.0,Variable,4.6,-,N/A,,Clear,0,2013-04-22 01:53:00
10:53 PM,48.0,21.9,36,30.47,10.0,ESE,9.2,-,N/A,,Clear,110,2013-04-22 02:53:00
11:53 PM,46.9,21.0,36,30.46,10.0,SE,8.1,-,N/A,,Clear,130,2013-04-22 03:53:00